Location: Foots Cray
(51.4000°N, 0.1167°E)
Time: 23:36:32
(UTC+00:00)

Aureole 1 Rocket - Pass Details

Date: 15 May 2026
Orbit: 372 x 1148 km, 73.9° (Epoch: 11 June)

Event Time Altitude Azimuth Distance (km) Brightness Sun altitude
Rises 22:14:24 0° 334° (NNW) 3,273 8.6 -16.1°
Reaches altitude 10° 22:16:36 10° 334° (NNW) 2,450 7.5 -16.3°
Maximum altitude 22:22:21 88° 249° (WSW) 968 3.9 -16.6°
Enters shadow 22:26:28 26° 159° (SSE) 1,929 4.9 -16.9°
